AEE984 LGAV-LWSK

Flight info

Callsign AEE984
Flight time 0h 59m
Altitude 32000
Route LGAV/21L KRO2N KRO T162 NEVRA T514 TSL N130 TALAS DCT PEP PEP2B LWSK/34
Aircraft A320/M-SDE3FGHIRWY/LB1

Departure

Time 2026-05-05 15:07
Airport Athens Eleftherios Venizelos International Airport (LGAV)

Arrival

Time 2026-05-05 16:06
Airport Skopje International Airport (LWSK)
Time Latitude Longitude Altitude Speed Heading
2026-05-05 14:45 37.93794 23.95020 301 ft 0 kts 306°
2026-05-05 14:57 37.93789 23.95028 303 ft 4 kts 307°
2026-05-05 14:57 37.93772 23.95055 300 ft 4 kts 315°
2026-05-05 14:57 37.93751 23.95076 300 ft 4 kts 334°
2026-05-05 14:58 37.93729 23.95082 300 ft 3 kts 30°
2026-05-05 14:58 37.93726 23.95080 300 ft 0 kts 37°
2026-05-05 15:00 37.93737 23.95091 300 ft 4 kts 37°
2026-05-05 15:00 37.93766 23.95118 300 ft 10 kts 37°
2026-05-05 15:00 37.93828 23.95177 303 ft 0 kts 37°
2026-05-05 15:00 37.93828 23.95178 303 ft 0 kts 37°
2026-05-05 15:01 37.93842 23.95194 300 ft 11 kts 47°
2026-05-05 15:01 37.93886 23.95324 299 ft 14 kts 76°
2026-05-05 15:01 37.93849 23.95440 298 ft 16 kts 98°
2026-05-05 15:01 37.93927 23.95544 299 ft 19 kts 36°
2026-05-05 15:02 37.94082 23.95692 299 ft 34 kts 37°
2026-05-05 15:02 37.94273 23.95874 299 ft 35 kts 36°
2026-05-05 15:02 37.94452 23.96041 300 ft 32 kts 37°
2026-05-05 15:02 37.94635 23.96215 299 ft 34 kts 37°
2026-05-05 15:03 37.94820 23.96391 301 ft 30 kts 37°
2026-05-05 15:03 37.94989 23.96551 302 ft 28 kts 36°
2026-05-05 15:03 37.95136 23.96690 303 ft 22 kts 37°
2026-05-05 15:03 37.95261 23.96809 304 ft 20 kts 37°
2026-05-05 15:04 37.95292 23.96907 305 ft 11 kts 117°
2026-05-05 15:04 37.95271 23.96943 306 ft 0 kts 126°
2026-05-05 15:05 37.95264 23.96955 308 ft 6 kts 126°
2026-05-05 15:05 37.95211 23.97017 310 ft 12 kts 166°
2026-05-05 15:05 37.95131 23.96965 309 ft 14 kts 218°
2026-05-05 15:06 37.95043 23.96883 308 ft 19 kts 217°
2026-05-05 15:06 37.94772 23.96627 301 ft 92 kts 216°
2026-05-05 15:06 37.94057 23.95957 284 ft 162 kts 216°
2026-05-05 15:06 37.93079 23.95060 758 ft 172 kts 213°
2026-05-05 15:07 37.92026 23.94315 1305 ft 176 kts 207°
2026-05-05 15:07 37.90901 23.93613 1764 ft 188 kts 208°
2026-05-05 15:07 37.89703 23.92811 2222 ft 201 kts 209°
2026-05-05 15:07 37.88436 23.91940 2789 ft 213 kts 211°
2026-05-05 15:08 37.87098 23.90993 3358 ft 227 kts 215°
2026-05-05 15:08 37.86002 23.89509 3908 ft 240 kts 245°
2026-05-05 15:08 37.85658 23.87416 4475 ft 253 kts 278°
2026-05-05 15:08 37.86305 23.85341 5027 ft 259 kts 311°
2026-05-05 15:09 37.87768 23.84064 5583 ft 260 kts 343°
2026-05-05 15:09 37.89540 23.83550 6141 ft 261 kts 347°
2026-05-05 15:09 37.91313 23.83012 6691 ft 262 kts 346°
2026-05-05 15:09 37.93087 23.82436 7227 ft 264 kts 345°
2026-05-05 15:10 37.94866 23.81851 7785 ft 265 kts 345°
2026-05-05 15:10 37.96660 23.81262 8367 ft 268 kts 345°
2026-05-05 15:10 37.98472 23.80672 8938 ft 270 kts 345°
2026-05-05 15:10 38.00300 23.80083 9539 ft 273 kts 345°
2026-05-05 15:11 38.02157 23.79490 10127 ft 277 kts 345°
2026-05-05 15:11 38.04069 23.78881 10690 ft 288 kts 345°
2026-05-05 15:11 38.06046 23.78251 11261 ft 298 kts 346°
2026-05-05 15:11 38.08091 23.77603 11846 ft 307 kts 346°
2026-05-05 15:12 38.10191 23.76935 12440 ft 315 kts 346°
2026-05-05 15:12 38.12354 23.76245 13039 ft 323 kts 346°
2026-05-05 15:12 38.14550 23.75540 13648 ft 329 kts 347°
2026-05-05 15:12 38.16759 23.74830 14196 ft 335 kts 347°
2026-05-05 15:13 38.19034 23.74101 14753 ft 341 kts 346°
2026-05-05 15:13 38.21345 23.73361 15318 ft 346 kts 346°
2026-05-05 15:13 38.23695 23.72610 15887 ft 350 kts 346°
2026-05-05 15:13 38.26071 23.71849 16470 ft 354 kts 346°
2026-05-05 15:14 38.28481 23.71076 17068 ft 358 kts 346°
2026-05-05 15:14 38.30908 23.70298 17671 ft 361 kts 346°
2026-05-05 15:14 38.33354 23.69510 18286 ft 364 kts 345°
2026-05-05 15:14 38.35821 23.68714 18836 ft 366 kts 345°
2026-05-05 15:15 38.38297 23.67916 19374 ft 368 kts 345°
2026-05-05 15:15 38.40796 23.67110 19928 ft 371 kts 345°
2026-05-05 15:15 38.43308 23.66300 20501 ft 373 kts 345°
2026-05-05 15:15 38.45831 23.65488 21071 ft 375 kts 345°
2026-05-05 15:16 38.48363 23.64673 21664 ft 376 kts 345°
2026-05-05 15:16 38.50896 23.63854 22261 ft 376 kts 344°
2026-05-05 15:16 38.53402 23.63046 22860 ft 376 kts 344°
2026-05-05 15:16 38.55938 23.62229 23494 ft 376 kts 344°
2026-05-05 15:17 38.58471 23.61412 24032 ft 375 kts 343°
2026-05-05 15:17 38.60997 23.60594 24537 ft 374 kts 343°
2026-05-05 15:17 38.63522 23.59774 25012 ft 375 kts 343°
2026-05-05 15:17 38.66050 23.58951 25496 ft 375 kts 343°
2026-05-05 15:18 38.68578 23.58131 25993 ft 375 kts 343°
2026-05-05 15:18 38.71104 23.57312 26488 ft 374 kts 343°
2026-05-05 15:18 38.73625 23.56491 26991 ft 373 kts 343°
2026-05-05 15:18 38.76139 23.55670 27509 ft 372 kts 343°
2026-05-05 15:19 38.78645 23.54851 28035 ft 371 kts 343°
2026-05-05 15:19 38.81150 23.54034 28569 ft 370 kts 343°
2026-05-05 15:19 38.83647 23.53223 29115 ft 369 kts 343°
2026-05-05 15:19 38.86129 23.52418 29666 ft 367 kts 343°
2026-05-05 15:20 38.88602 23.51615 30212 ft 365 kts 343°
2026-05-05 15:20 38.91060 23.50814 30704 ft 364 kts 342°
2026-05-05 15:20 38.93502 23.50015 31200 ft 362 kts 342°
2026-05-05 15:20 38.95932 23.49215 31701 ft 360 kts 342°
2026-05-05 15:21 38.98368 23.48412 31976 ft 365 kts 342°
2026-05-05 15:21 39.03413 23.46745 32034 ft 384 kts 342°
2026-05-05 15:22 39.08694 23.45006 32033 ft 397 kts 342°
2026-05-05 15:22 39.14061 23.43255 32050 ft 399 kts 343°
2026-05-05 15:23 39.19438 23.41499 32037 ft 398 kts 342°
2026-05-05 15:23 39.24805 23.39733 32036 ft 398 kts 342°
2026-05-05 15:24 39.30165 23.37960 32028 ft 398 kts 342°
2026-05-05 15:24 39.35495 23.36193 32033 ft 398 kts 342°
2026-05-05 15:25 39.40863 23.34413 32045 ft 398 kts 343°
2026-05-05 15:25 39.46226 23.32632 32040 ft 398 kts 342°
2026-05-05 15:26 39.51589 23.30850 32040 ft 398 kts 342°
2026-05-05 15:26 39.56948 23.29069 32038 ft 398 kts 342°
2026-05-05 15:27 39.62310 23.27278 32049 ft 398 kts 342°
2026-05-05 15:27 39.66767 23.25787 32042 ft 398 kts 342°
2026-05-05 15:28 39.72123 23.23995 32034 ft 397 kts 342°
2026-05-05 15:28 39.77482 23.22209 32027 ft 397 kts 342°
2026-05-05 15:29 39.82835 23.20407 32027 ft 398 kts 342°
2026-05-05 15:29 39.88199 23.18604 32017 ft 398 kts 342°
2026-05-05 15:30 39.94445 23.16507 32007 ft 399 kts 342°
2026-05-05 15:30 39.98947 23.14990 32006 ft 399 kts 342°
2026-05-05 15:31 40.04325 23.13168 32011 ft 400 kts 342°
2026-05-05 15:31 40.09677 23.11365 32002 ft 401 kts 342°
2026-05-05 15:32 40.15078 23.09539 31978 ft 401 kts 342°
2026-05-05 15:32 40.20477 23.07695 31985 ft 401 kts 342°
2026-05-05 15:33 40.25872 23.05860 32000 ft 401 kts 342°
2026-05-05 15:33 40.31275 23.04027 31994 ft 402 kts 342°
2026-05-05 15:34 40.36685 23.02181 31992 ft 402 kts 342°
2026-05-05 15:34 40.42079 23.00235 31995 ft 401 kts 337°
2026-05-05 15:35 40.46825 22.96533 31993 ft 398 kts 319°
2026-05-05 15:35 40.50432 22.91020 31995 ft 399 kts 309°
2026-05-05 15:36 40.53819 22.85219 31999 ft 400 kts 309°
2026-05-05 15:36 40.57207 22.79413 32002 ft 400 kts 309°
2026-05-05 15:37 40.60591 22.73615 31994 ft 399 kts 309°
2026-05-05 15:37 40.63959 22.67820 31999 ft 399 kts 309°
2026-05-05 15:38 40.67326 22.62014 32004 ft 398 kts 309°
2026-05-05 15:38 40.70690 22.56219 32016 ft 398 kts 309°
2026-05-05 15:39 40.74049 22.50415 32009 ft 398 kts 309°
2026-05-05 15:39 40.75726 22.47513 31823 ft 399 kts 309°
2026-05-05 15:39 40.77380 22.44643 31349 ft 398 kts 308°
2026-05-05 15:39 40.79081 22.41686 30919 ft 400 kts 308°
2026-05-05 15:40 40.80764 22.38761 30481 ft 402 kts 308°
2026-05-05 15:40 40.82435 22.35855 30048 ft 403 kts 308°
2026-05-05 15:40 40.84140 22.32892 29534 ft 406 kts 308°
2026-05-05 15:40 40.85848 22.29917 29040 ft 409 kts 308°
2026-05-05 15:41 40.87577 22.26904 28555 ft 413 kts 308°
2026-05-05 15:41 40.89306 22.23888 28071 ft 415 kts 308°
2026-05-05 15:41 40.91057 22.20829 27601 ft 418 kts 308°
2026-05-05 15:41 40.92815 22.17758 27151 ft 419 kts 308°
2026-05-05 15:42 40.94573 22.14685 26777 ft 419 kts 308°
2026-05-05 15:42 40.96331 22.11610 26456 ft 419 kts 308°
2026-05-05 15:42 40.98091 22.08528 26159 ft 420 kts 308°
2026-05-05 15:42 40.99854 22.05440 25873 ft 420 kts 308°
2026-05-05 15:43 41.01609 22.02352 25578 ft 419 kts 308°
2026-05-05 15:43 41.03356 21.99273 25275 ft 418 kts 308°
2026-05-05 15:43 41.05097 21.96200 24996 ft 418 kts 308°
2026-05-05 15:43 41.06846 21.93115 24728 ft 417 kts 308°
2026-05-05 15:44 41.08584 21.90043 24437 ft 417 kts 308°
2026-05-05 15:44 41.10299 21.86999 24170 ft 416 kts 308°
2026-05-05 15:44 41.12028 21.83918 23891 ft 416 kts 308°
2026-05-05 15:44 41.13773 21.80800 23604 ft 416 kts 308°
2026-05-05 15:45 41.15481 21.77747 23269 ft 414 kts 307°
2026-05-05 15:45 41.17191 21.74684 22935 ft 401 kts 307°
2026-05-05 15:45 41.18799 21.71802 22533 ft 383 kts 307°
2026-05-05 15:45 41.20345 21.69025 22127 ft 364 kts 307°
2026-05-05 15:46 41.21811 21.66385 21746 ft 347 kts 307°
2026-05-05 15:46 41.23211 21.63865 21361 ft 331 kts 308°
2026-05-05 15:46 41.24548 21.61460 20983 ft 317 kts 307°
2026-05-05 15:46 41.25843 21.59133 20604 ft 311 kts 308°
2026-05-05 15:47 41.27122 21.56832 20231 ft 309 kts 308°
2026-05-05 15:47 41.27967 21.55313 19986 ft 308 kts 308°
2026-05-05 15:47 41.29698 21.52281 19498 ft 307 kts 314°
2026-05-05 15:47 41.31325 21.50473 19142 ft 305 kts 329°
2026-05-05 15:48 41.33271 21.49379 18792 ft 304 kts 346°
2026-05-05 15:48 41.35364 21.49068 18435 ft 304 kts
2026-05-05 15:48 41.37448 21.49558 18045 ft 306 kts 17°
2026-05-05 15:48 41.39352 21.50830 17644 ft 308 kts 34°
2026-05-05 15:49 41.41036 21.52603 17251 ft 309 kts 37°
2026-05-05 15:49 41.42710 21.54395 16858 ft 309 kts 37°
2026-05-05 15:49 41.44385 21.56189 16468 ft 309 kts 37°
2026-05-05 15:49 41.46058 21.57981 16082 ft 308 kts 37°
2026-05-05 15:50 41.47729 21.59767 15709 ft 308 kts 37°
2026-05-05 15:50 41.49394 21.61549 15339 ft 304 kts 37°
2026-05-05 15:50 41.51015 21.63289 14966 ft 294 kts 37°
2026-05-05 15:50 41.52597 21.64989 14603 ft 290 kts 37°
2026-05-05 15:51 41.54163 21.66675 14249 ft 289 kts 37°
2026-05-05 15:51 41.55721 21.68350 13870 ft 287 kts 37°
2026-05-05 15:51 41.57268 21.70015 13455 ft 285 kts 37°
2026-05-05 15:51 41.58798 21.71662 13023 ft 283 kts 37°
2026-05-05 15:52 41.60328 21.73311 12604 ft 282 kts 37°
2026-05-05 15:52 41.61801 21.75038 12190 ft 282 kts 49°
2026-05-05 15:52 41.62736 21.77322 11793 ft 283 kts 73°
2026-05-05 15:52 41.62861 21.79938 11392 ft 284 kts 99°
2026-05-05 15:53 41.62158 21.82358 10989 ft 277 kts 124°
2026-05-05 15:53 41.60807 21.84130 10599 ft 270 kts 149°
2026-05-05 15:53 41.59115 21.85006 10212 ft 263 kts 172°
2026-05-05 15:53 41.57305 21.84933 9816 ft 255 kts 196°
2026-05-05 15:54 41.55733 21.83991 9410 ft 250 kts 216°
2026-05-05 15:54 41.54324 21.82621 9089 ft 251 kts 219°
2026-05-05 15:54 41.52960 21.81174 8731 ft 249 kts 220°
2026-05-05 15:54 41.51642 21.79736 8414 ft 241 kts 221°
2026-05-05 15:55 41.50366 21.78340 8087 ft 233 kts 221°
2026-05-05 15:55 41.49143 21.76967 7762 ft 226 kts 227°
2026-05-05 15:55 41.48227 21.75327 7455 ft 217 kts 245°
2026-05-05 15:55 41.47753 21.73458 7175 ft 213 kts 262°
2026-05-05 15:56 41.47746 21.71504 6851 ft 211 kts 279°
2026-05-05 15:56 41.48204 21.69650 6531 ft 212 kts 297°
2026-05-05 15:56 41.49081 21.68086 6200 ft 211 kts 315°
2026-05-05 15:56 41.50290 21.66972 5868 ft 213 kts 334°
2026-05-05 15:57 41.51716 21.66427 5550 ft 215 kts 352°
2026-05-05 15:57 41.53214 21.66526 5226 ft 217 kts 12°
2026-05-05 15:57 41.54598 21.67310 4904 ft 217 kts 36°
2026-05-05 15:57 41.55788 21.68538 4580 ft 216 kts 39°
2026-05-05 15:58 41.56955 21.69765 4259 ft 209 kts 40°
2026-05-05 15:58 41.58075 21.70947 3940 ft 203 kts 39°
2026-05-05 15:58 41.59182 21.72064 3733 ft 196 kts 33°
2026-05-05 15:58 41.60377 21.72868 3706 ft 195 kts 21°
2026-05-05 15:59 41.61682 21.73338 3716 ft 194 kts
2026-05-05 15:59 41.63032 21.73438 3711 ft 195 kts 357°
2026-05-05 15:59 41.64375 21.73166 3710 ft 195 kts 345°
2026-05-05 15:59 41.65686 21.72705 3707 ft 195 kts 346°
2026-05-05 16:00 41.66974 21.72258 3703 ft 189 kts 346°
2026-05-05 16:00 41.68239 21.71820 3702 ft 187 kts 346°
2026-05-05 16:00 41.69495 21.71386 3704 ft 187 kts 345°
2026-05-05 16:00 41.70757 21.70951 3704 ft 187 kts 346°
2026-05-05 16:01 41.72018 21.70515 3701 ft 187 kts 346°
2026-05-05 16:01 41.73280 21.70079 3682 ft 187 kts 346°
2026-05-05 16:01 41.74538 21.69644 3689 ft 186 kts 346°
2026-05-05 16:01 41.75794 21.69210 3694 ft 186 kts 346°
2026-05-05 16:02 41.77047 21.68777 3697 ft 186 kts 346°
2026-05-05 16:02 41.78296 21.68345 3698 ft 185 kts 346°
2026-05-05 16:02 41.79546 21.67912 3696 ft 186 kts 346°
2026-05-05 16:02 41.80797 21.67479 3695 ft 186 kts 346°
2026-05-05 16:03 41.82054 21.67043 3567 ft 186 kts 347°
2026-05-05 16:03 41.83305 21.66610 3341 ft 185 kts 346°
2026-05-05 16:03 41.84548 21.66179 3096 ft 184 kts 346°
2026-05-05 16:03 41.85771 21.65755 2839 ft 179 kts 346°
2026-05-05 16:04 41.86930 21.65352 2614 ft 165 kts 346°
2026-05-05 16:04 41.88007 21.64978 2372 ft 157 kts 346°
2026-05-05 16:04 41.89055 21.64614 2140 ft 154 kts 346°
2026-05-05 16:04 41.90083 21.64258 1908 ft 153 kts 347°
2026-05-05 16:05 41.91098 21.63905 1693 ft 152 kts 346°
2026-05-05 16:05 41.92123 21.63549 1451 ft 150 kts 346°
2026-05-05 16:05 41.93110 21.63205 1167 ft 144 kts 345°
2026-05-05 16:05 41.94059 21.62882 951 ft 137 kts 346°
2026-05-05 16:06 41.94976 21.62554 824 ft 136 kts 346°
2026-05-05 16:06 41.95824 21.62260 786 ft 107 kts 347°
2026-05-05 16:06 41.96385 21.62071 790 ft 58 kts 345°
2026-05-05 16:06 41.96656 21.61973 790 ft 38 kts 343°
2026-05-05 16:07 41.96897 21.61879 790 ft 28 kts 347°
2026-05-05 16:07 41.97006 21.61916 793 ft 16 kts 74°
2026-05-05 16:07 41.96959 21.62018 791 ft 13 kts 126°
2026-05-05 16:07 41.96900 21.62123 793 ft 15 kts 127°
2026-05-05 16:08 41.96806 21.62184 794 ft 17 kts 166°
2026-05-05 16:08 41.96683 21.62226 793 ft 20 kts 166°
2026-05-05 16:08 41.96543 21.62276 793 ft 22 kts 165°
2026-05-05 16:08 41.96388 21.62332 792 ft 25 kts 165°
2026-05-05 16:09 41.96274 21.62372 792 ft 13 kts 165°
2026-05-05 16:09 41.96179 21.62405 791 ft 16 kts 165°
2026-05-05 16:09 41.96122 21.62439 792 ft 4 kts 104°
2026-05-05 16:09 41.96123 21.62443 792 ft 3 kts 80°
2026-05-05 16:10 41.96125 21.62450 792 ft 3 kts 78°
2026-05-05 16:10 41.96126 21.62458 793 ft 3 kts 78°
2026-05-05 16:10 41.96124 21.62489 793 ft 0 kts 107°
2026-05-05 16:10 41.96122 21.62493 793 ft 2 kts 117°
2026-05-05 16:11 41.96109 21.62511 793 ft 1 kts 136°
2026-05-05 16:11 41.96106 21.62516 793 ft 1 kts 131°
2026-05-05 16:12 41.96104 21.62524 793 ft 1 kts 107°
2026-05-05 16:12 41.96105 21.62574 793 ft 0 kts 76°